{"data":{"norad_id":60039,"epoch":"2026-09-21T15:22:29.532576Z","epoch_age_seconds":78991,"freshness":"FRESH","line1":"1 60039U 24112B   26264.64061959 -.00000957  00000+0 -30434-5 0  9999","line2":"2 60039  53.1593  20.5722 0001045  93.7615 266.3522 15.69704775131759","mean_motion":15.69704775,"eccentricity":0.0001045,"inclination_deg":53.1593,"raan_deg":20.5722,"arg_perigee_deg":93.7615,"mean_anomaly_deg":266.3522,"bstar":-3.0434e-6,"rev_number":13175,"period_min":91.736995576127,"perigee_km":359.03759408683,"apogee_km":360.44581073563,"semimajor_km":6737.8787024112,"source":"CELESTRAK","updated_at":"2026-09-22T09:00:49.141753Z"}}